CAPE
2 3 2 3 3 2 2 1 1 1 1 1 2 1 1 0 0 0 0 0 0 0 0 0 0 0 0 0 0 0 0 0 0 0 0 0 0 0 0 0 0 0 0 0 0
2 3 3 4 4 4 2 3 2 3 3 2 2 1 1 0 0 0 0 0 0 0 0 0 0 0 0 0 0 0 0 0 0 0 0 0 0 0 0 0 0 0 0 0 0
0 2 2 3 3 2 0 0 3 4 5 5 5 4 2 0 0 0 0 0 0 0 0 0 0 0 0 0 0 0 0 0 0 0 0 0 0 0 0 0 0 0 0 0 0
0 3 2 2 3 2 3 5 5 8 5 5 5 6 3 0 0 0 0 0 0 0 0 0 0 0 0 0 0 0 0 0 0 0 0 0 0 0 0 0 0 0 0 0 0
3 3 3 2 2 2 3 3 5 4 4 4 6 6 0 0 0 0 0 0 0 0 0 0 0 0 0 0 0 0 0 0 0 0 0 0 0 0 0 0 0 0 0 0 0
1 1 1 1 2 2 2 2 1 2 3 5 6 9 2 0 0 0 0 0 0 0 0 0 0 0 0 0 0 0 0 0 0 0 0 0 0 0 0 0 0 0 0 0 0
1 1 1 1 1 2 2 2 2 2 3 4 9 10 0 0 0 0 0 0 0 0 0 0 0 0 0 0 0 0 0 0 0 0 0 0 0 0 0 0 0 0 0 0 0
1 1 1 2 3 4 2 2 0 4 5 3 6 5 0 0 0 0 0 0 0 0 0 0 0 0 0 0 0 0 0 0 0 0 0 0 0 0 0 0 0 0 0 0 0
0 1 1 2 4 3 2 1 0 2 2 4 3 3 0 0 0 0 0 0 0 0 0 0 0 0 0 0 0 0 0 0 0 0 0 0 0 0 0 0 0 0 0 0 0
2 2 2 1 3 2 1 0 0 0 1 3 1 0 0 0 0 0 0 0 0 0 0 0 0 0 0 0 0 0 0 0 0 0 0 0 0 0 0 0 0 0 0 0 0
4 3 3 2 2 1 0 0 0 1 8 0 0 0 0 0 0 0 0 0 0 0 0 0 0 0 0 0 0 0 0 0 0 0 0 0 0 0 0 0 0 0 0 0 0
2 2 2 1 0 0 1 0 0 0 0 0 0 0 0 0 0 0 0 0 0 0 0 0 0 0 0 0 0 0 0 0 0 0 0 0 0 0 0 0 0 0 0 0 0
3 2 0 0 0 0 0 0 0 0 0 0 0 0 0 0 0 0 0 0 0 0 0 0 0 0 0 0 0 0 0 0 0 0 0 0 0 0 0 0 0 0 0 0 0
0 2 0 0 0 0 0 0 0 5 0 0 0 0 0 0 0 0 0 0 0 0 0 0 0 0 0 0 0 0 0 0 0 0 0 0 0 0 0 0 0 0 0 0 0
0 0 0 9 0 0 0 0 0 8 0 0 0 0 0 0 0 0 0 0 0 0 0 0 0 0 0 0 0 0 0 0 0 0 0 0 0 0 0 0 1 0 0 0 1
0 1 1 0 0 0 0 0 0 3 0 0 4 0 0 0 0 0 0 0 0 1 0 1 0 0 0 0 0 0 0 0 0 0 0 0 6 1 0 7 18 0 20 27 0
0 0 2 1 0 0 0 0 0 0 0 0 24 0 1 0 1 6 0 0 0 0 0 0 0 0 0 0 0 0 0 0 6 4 0 0 0 0 0 2 42 7 5 12 0
0 0 0 0 0 6 7 0 0 0 0 0 1 1 55 48 47 65 15 0 0 0 5 10 5 2 0 0 0 0 0 11 4 1 4 0 0 0 0 9 2 17 16 8 0
0 0 0 0 11 17 26 0 0 0 0 0 0 0 0 51 36 41 51 26 1 2 0 19 21 0 1 0 9 7 4 2 1 8 24 5 24 40 10 0 30 20 41 15 0
4 0 7 9 20 6 26 0 0 0 0 12 11 0 0 4 17 44 67 55 36 2 0 9 15 17 2 0 0 1 33 19 2 46 27 85 40 84 17 9 26 42 29 0 0
3 3 60 31 18 12 5 11 11 0 0 0 20 0 0 0 1 1 24 45 47 30 3 7 44 29 9 2 8 10 46 59 91 46 26 18 63 8 12 18 22 34 34 5 0
9 11 79 27 9 17 10 3 36 0 0 1 1 6 2 15 0 3 0 0 5 42 4 5 79 4 3 13 10 54 36 132 72 64 122 22 19 0 12 46 25 57 7 0 0
21 1 13 50 3 20 30 17 54 35 12 7 22 2 0 8 2 21 1 3 0 23 94 67 19 55 0 40 71 81 47 74 114 144 81 39 32 0 5 130 74 66 22 0 0
13 16 30 99 56 38 13 0 55 20 0 14 33 56 58 81 28 62 40 1 13 1 0 13 22 46 74 39 130 52 103 139 192 138 125 50 48 32 23 32 35 43 2 0 0
14 18 35 15 13 9 13 2 24 7 12 0 11 32 13 12 7 38 80 27 6 0 0 1 63 143 119 70 0 109 60 76 113 147 24 26 60 28 10 17 31 5 0 0 0
24 23 6 16 16 40 5 37 50 1 0 8 0 6 3 0 25 37 68 73 44 0 3 0 2 27 132 144 6 21 61 109 139 164 60 58 47 136 43 24 38 10 9 7 19
6 34 18 1 6 11 32 16 11 11 6 0 7 5 0 24 5 13 0 24 33 49 14 6 26 6 11 22 15 23 36 19 23 36 24 27 19 27 8 55 44 33 31 11 2
CIN
-0 -0 -1 -1 -0 -0 -0 -0 -0 -0 -0 -1 -0 -0 -0 -0 -0 -0 -0 -0 -0 -0 -0 -0 -0 -0 -0 -0 -0 -0 -0 -0 -0 -0 -0 -0 -0 -0 -0 -0 -0 -0 -0 -0 -0
-1 -0 -0 -0 -0 -0 -0 -0 -0 -0 -0 -0 -0 -0 -0 -0 -0 -0 -0 -0 -0 -0 -0 -0 -0 -0 -0 -0 -0 -0 -0 -0 -0 -0 -0 -0 -0 -0 -0 -0 -0 -0 -0 -0 -0
-0 -1 -1 -1 -1 -0 -0 -0 -0 -0 -0 -0 -0 -0 -0 -0 -0 -0 -0 -0 -0 -0 -0 -0 -0 -0 -0 -0 -0 -0 -0 -0 -0 -0 -0 -0 -0 -0 -0 -0 -0 -0 -0 -0 -0
-0 -1 -1 -1 -0 -0 -0 -0 -0 -0 -0 -0 -1 -1 -0 -0 -0 -0 -0 -0 -0 -0 -0 -0 -0 -0 -0 -0 -0 -0 -0 -0 -0 -0 -0 -0 -0 -0 -0 -0 -0 -0 -0 -0 -0
-2 -1 -0 -0 -0 -0 -0 -0 -0 -1 -1 -0 -0 -1 -0 -0 -0 -0 -0 -0 -0 -0 -0 -0 -0 -0 -0 -0 -0 -0 -0 -0 -0 -0 -0 -0 -0 -0 -0 -0 -0 -0 -0 -0 -0
-1 -1 -2 -1 -0 -0 -0 -1 -1 -2 -1 -0 -0 -0 -0 -0 -0 -0 -0 -0 -0 -0 -0 -0 -0 -0 -0 -0 -0 -0 -0 -0 -0 -0 -0 -0 -0 -0 -0 -0 -0 -0 -0 -0 -0
-1 -1 -2 -1 -1 -0 -1 -1 -1 -1 -1 -0 -0 -0 -0 -0 -0 -0 -0 -0 -0 -0 -0 -0 -0 -0 -0 -0 -0 -0 -0 -0 -0 -0 -0 -0 -0 -0 -0 -0 -0 -0 -0 -0 -0
-1 -1 -1 -0 -1 -1 -1 -1 -1 -0 -0 -0 -0 -0 -0 -0 -0 -0 -0 -0 -0 -0 -0 -0 -0 -0 -0 -0 -0 -0 -0 -0 -0 -0 -0 -0 -0 -0 -0 -0 -0 -0 -0 -0 -0
-2 -4 -1 -0 -0 -0 -0 -0 -0 -0 -0 -2 -1 -0 -0 -0 -0 -0 -0 -0 -0 -0 -0 -0 -0 -0 -0 -0 -0 -0 -0 -0 -0 -0 -0 -0 -0 -0 -0 -0 -0 -0 -0 -0 -0
-1 -1 -0 -0 -0 -0 -0 -0 -0 -0 -1 -1 -1 -0 -0 -0 -0 -0 -0 -0 -0 -0 -0 -0 -0 -0 -0 -0 -0 -0 -0 -0 -0 -0 -0 -0 -0 -0 -0 -0 -0 -0 -0 -0 -0
-1 -0 -0 -1 -0 -1 -0 -0 -0 -0 -0 -0 -0 -0 -0 -0 -0 -0 -0 -0 -0 -0 -0 -0 -0 -0 -0 -0 -0 -0 -0 -0 -0 -0 -0 -0 -0 -0 -0 -0 -0 -0 -0 -0 -0
-0 -0 -1 -2 -0 -0 -0 -0 -0 -0 -0 -0 -0 -0 -0 -0 -0 -0 -0 -0 -0 -0 -0 -0 -0 -0 -0 -0 -0 -0 -0 -0 -0 -0 -0 -0 -0 -0 -0 -0 -0 -0 -0 -0 -0
-3 -2 -0 -0 -0 -0 -0 -0 -0 -0 -0 -0 -0 -0 -0 -0 -0 -0 -0 -0 -0 -0 -0 -0 -0 -0 -0 -0 -0 -0 -0 -0 -0 -0 -0 -0 -0 -0 -0 -0 -0 -0 -0 -0 -0
-0 -4 -1 -0 -0 -0 -0 -0 -0 -2 -0 -0 -0 -0 -0 -0 -0 -0 -0 -0 -0 -0 -0 -0 -0 -0 -0 -0 -0 -0 -0 -0 -0 -0 -0 -0 -0 -0 -0 -0 -0 -0 -0 -0 -0
-0 -0 -0 -3 -0 -0 -0 -0 -0 -0 -0 -0 -0 -0 -0 -0 -0 -0 -0 -0 -0 -0 -0 -0 -0 -0 -0 -0 -0 -0 -0 -0 -0 -0 -0 -0 -0 -0 -0 -0 -3 -0 -0 -0 -2
-0 -0 -0 -0 -0 -0 -0 -0 -0 -1 -0 -0 -1 -0 -0 -0 -0 -0 -0 -0 -0 -4 -0 -6 -6 -0 -0 -0 -0 -0 -0 -0 -0 -2 -0 -0 -8 -11 -3 -9 -6 -0 -16 -46 -0
-0 -0 -0 -1 -0 -0 -0 -0 -0 -0 -0 -0 -3 -0 -29 -0 -1 -7 -0 -0 -0 -0 -3 -0 -0 -1 -0 -0 -0 -0 -0 -2 -8 -11 -0 -0 -0 -0 -2 -24 -5 -25 -56 -89 -0
-0 -0 -0 -0 -0 -1 -3 -0 -0 -0 -0 -0 -2 -6 -1 -2 -6 -7 -4 -0 -0 -0 -8 -7 -5 -6 -0 -0 -0 -0 -1 -8 -11 -17 -11 -3 -0 -0 -0 -12 -38 -11 -79 -96 -0
-0 -0 -0 -0 -0 -2 -0 -0 -0 -0 -0 -0 -0 -3 -0 -9 -7 -10 -7 -5 -1 -6 -0 -14 -7 -1 -5 -0 -14 -8 -8 -6 -19 -28 -30 -20 -11 -14 -38 -2 -9 -61 -95 -90 -0
-1 -1 -3 -2 -1 -1 -0 -0 -0 -0 -0 -17 -42 -0 -0 -7 -8 -12 -5 -6 -6 -9 -0 -35 -17 -7 -9 -0 -0 -16 -9 -14 -7 -9 -8 -8 -23 -14 -24 -18 -39 -84 -80 -0 -0
-3 -1 -2 -4 -17 -0 -1 -4 -5 -0 -0 -11 -6 -0 -0 -0 -0 -14 -38 -13 -12 -11 -11 -11 -8 -17 -5 -5 -8 -6 -6 -5 -5 -6 -3 -5 -14 -53 -58 -10 -16 -43 -50 -105 -0
-1 -0 -7 -10 -0 -0 -3 -11 -16 -0 -0 -0 -5 -6 -5 -9 -0 -0 -5 -16 -45 -12 -11 -9 -10 -7 -9 -7 -6 -9 -6 -4 -10 -8 -2 -28 -8 -0 -45 -17 -8 -4 -5 -2 -0
-0 -1 -5 -2 -1 -4 -3 -6 -9 -3 -8 -3 -6 -0 -0 -1 -15 -34 -0 -58 -0 -20 -27 -24 -4 -5 -2 -8 -3 -7 -27 -20 -9 -6 -3 -12 -8 -0 -2 -14 -30 -5 -2 -0 -0
-0 -1 -5 -1 -1 -1 -0 -0 -1 -6 -0 -0 -20 -19 -32 -5 -4 -8 -34 -1 -7 -22 -0 -64 -35 -11 -4 -44 -9 -5 -3 -6 -3 -6 -3 -2 -6 -50 -31 -10 -4 -5 -2 -0 -0
-2 -2 -1 -1 -2 -2 -2 -0 -1 -0 -0 -0 -14 -2 -5 -15 -6 -4 -3 -0 -3 -0 -0 -2 -7 -6 -4 -23 -0 -7 -6 -5 -6 -6 -36 -6 -4 -56 -7 -25 -3 -5 -0 -0 -0
-0 -0 -1 -1 -1 -1 -8 -2 -0 -5 -0 -0 -0 -7 -42 -0 -0 -9 -7 -1 -13 -14 -16 -0 -0 -7 -2 -4 -39 -2 -3 -12 -3 -2 -11 -10 -6 -3 -56 -59 -3 -7 -3 -4 -2
-0 -1 -0 -1 -1 -3 -4 -3 -2 -5 -28 -0 -0 -0 -0 -0 -9 -23 -0 -3 -2 -2 -27 -0 -0 -2 -11 -5 -4 -5 -5 -10 -5 -5 -5 -4 -3 -8 -17 -6 -2 -6 -4 -7 -7
Wind_Speed
21 22 19 18 17 16 16 16 16 20 27 31 31 32 34 36 37 24 17 12 16 16 19 18 17 19 20 20 20 22 33 36 33 32 29 23 26 21 25 26 22 23 24 16 17
25 24 24 23 22 22 22 22 19 18 16 19 26 32 34 36 39 32 14 9 10 15 12 14 15 18 20 20 18 24 30 33 30 29 28 27 23 26 22 26 27 27 29 28 22
29 28 25 25 25 26 25 23 24 22 19 20 22 26 32 34 21 13 19 4 6 7 10 13 15 17 23 22 20 22 35 27 30 28 29 30 29 25 31 31 28 28 26 25 23
26 29 26 25 24 27 27 26 27 25 23 22 21 22 26 21 18 15 15 8 3 5 7 12 15 19 24 26 26 31 30 35 30 27 29 31 30 32 29 31 30 28 27 26 18
27 28 28 26 25 26 27 28 28 25 22 22 18 17 17 8 7 9 15 7 2 6 9 9 14 18 25 28 27 30 34 27 32 31 28 29 30 31 32 29 28 28 27 22 17
29 29 29 30 30 29 27 28 29 27 25 25 17 15 11 12 12 8 8 4 2 6 7 8 10 17 27 32 28 28 32 37 29 28 27 30 33 31 29 28 27 25 24 19 20
30 29 28 28 28 29 31 31 30 29 28 25 19 10 11 7 13 8 3 3 2 4 5 7 9 16 23 30 29 33 30 31 34 29 29 27 35 32 27 25 21 18 18 18 17
32 32 31 30 29 30 32 35 33 31 25 19 14 11 18 12 5 7 0 2 3 4 7 7 11 18 18 23 25 29 32 36 29 24 24 22 33 21 20 18 19 17 17 15 14
31 32 32 32 32 33 33 35 36 27 20 13 12 14 23 11 6 6 2 4 3 3 7 11 13 14 14 23 28 26 35 31 32 19 19 21 26 13 16 18 19 17 15 11 10
32 32 34 36 36 36 37 36 28 20 16 13 18 19 16 13 6 5 7 4 6 5 5 8 12 14 17 15 27 27 28 33 27 17 24 22 29 20 20 21 19 19 17 13 13
35 36 35 35 37 36 37 30 22 22 18 18 17 16 16 11 6 4 11 5 7 8 10 9 11 15 14 17 21 26 25 30 28 16 22 26 27 27 22 19 21 21 19 16 11
37 37 37 36 36 36 28 23 25 30 37 21 22 22 17 12 10 6 9 11 11 12 12 9 19 15 18 17 23 26 28 26 25 26 23 27 31 28 26 20 21 19 21 20 14
36 36 37 37 38 28 24 27 25 26 32 35 24 23 18 17 14 11 13 14 14 14 15 17 13 17 18 19 19 25 27 23 28 25 27 29 33 30 27 22 19 20 22 19 16
36 36 35 36 30 28 32 24 19 26 34 33 21 20 19 14 22 13 15 16 11 15 15 15 18 12 18 20 19 24 22 29 27 26 32 19 37 22 22 18 17 17 14 12 7
37 34 33 27 28 25 24 23 24 19 40 27 8 12 7 19 12 21 15 18 16 12 15 15 15 14 18 19 20 24 20 20 27 32 33 33 29 31 14 15 13 13 9 5 4
37 36 32 29 20 21 22 21 16 26 39 21 13 13 7 17 13 9 18 17 15 16 16 17 15 23 17 21 20 20 24 25 26 28 37 36 27 27 16 15 10 8 8 5 6
37 34 30 25 25 20 20 16 28 33 22 25 18 13 13 13 15 12 18 20 18 18 18 16 22 18 21 22 21 20 18 20 22 26 33 26 31 29 18 14 8 8 8 8 8
39 35 27 22 20 19 21 20 33 26 23 30 23 30 16 15 18 15 16 19 21 15 16 17 19 18 13 20 17 18 18 21 23 19 22 18 29 24 16 10 10 4 7 8 8
38 29 25 21 15 14 17 26 27 24 28 37 43 40 31 17 17 16 18 20 18 18 18 15 17 14 19 19 17 14 21 26 29 31 21 19 13 10 12 14 10 9 10 9 8
35 29 20 16 14 8 14 24 25 29 41 36 39 41 38 40 19 18 18 18 18 18 22 18 21 16 13 15 23 30 21 23 22 25 31 14 15 17 12 10 10 8 8 9 9
25 27 16 15 13 12 17 19 19 32 45 48 36 43 40 36 31 42 18 11 17 17 18 24 25 14 12 16 16 17 18 17 23 26 25 26 22 16 16 8 9 7 6 7 9
23 24 13 12 17 13 13 12 38 32 39 41 29 44 43 32 37 30 40 27 18 17 17 14 23 15 13 9 17 16 15 12 21 20 23 25 28 15 17 16 19 5 6 8 10
22 21 15 7 19 17 18 29 34 31 37 37 45 47 46 46 44 22 34 21 20 15 25 22 25 28 27 11 15 15 23 24 23 24 22 26 20 17 19 7 8 10 8 10 12
22 21 16 8 10 11 19 31 28 26 33 33 38 37 37 45 43 31 23 22 26 23 15 17 26 16 30 11 17 12 17 14 14 22 24 26 23 17 14 12 9 9 8 11 12
16 18 17 18 19 32 33 29 28 24 25 30 31 36 37 33 38 40 25 18 29 23 25 20 27 29 33 23 21 41 12 19 20 29 24 22 23 13 17 23 9 9 6 6 9
19 20 19 15 18 31 28 27 25 25 23 25 32 31 29 36 36 31 30 26 23 22 22 24 26 26 26 20 27 17 14 16 23 28 28 28 27 13 10 9 8 7 5 10 14
23 19 14 13 10 26 25 24 26 24 22 23 26 30 33 31 23 24 18 23 16 12 14 12 32 26 26 25 20 23 18 18 25 24 26 28 22 21 14 10 8 8 14 14 17
Wind_Direction
17 12 16 16 17 16 13 9 6 355 336 322 321 317 309 304 300 311 300 296 311 294 291 284 266 265 268 268 266 273 265 265 266 269 272 279 279 277 283 279 280 280 272 300 301
6 4 3 2 3 1 1 358 1 359 359 353 335 318 314 306 292 271 254 272 291 301 279 273 261 259 258 263 261 262 263 265 270 278 274 276 280 278 281 279 275 275 275 277 288
358 353 357 356 354 349 352 351 350 352 353 349 345 336 321 311 335 323 325 244 258 267 269 274 269 258 259 262 254 263 262 272 271 279 277 276 278 283 277 276 277 277 278 276 274
359 351 354 355 354 346 345 343 342 346 346 345 345 340 333 336 338 359 345 349 267 205 239 261 267 257 259 256 262 263 269 266 276 281 277 274 278 275 277 276 279 282 280 277 267
355 352 352 353 351 348 343 339 337 342 344 343 342 341 344 335 256 316 337 356 359 190 200 215 255 258 259 263 263 263 266 273 273 275 278 277 274 276 276 281 280 280 278 274 264
352 348 347 345 343 342 342 337 333 334 337 337 340 342 341 315 344 340 320 339 360 172 208 209 253 262 268 264 266 269 266 266 275 275 274 273 271 272 277 279 278 279 278 271 270
349 349 348 346 344 340 334 332 331 329 329 332 339 343 319 269 349 344 317 268 276 204 229 233 256 274 270 270 268 264 272 270 266 271 274 276 268 268 278 282 282 282 281 276 273
345 344 343 342 342 339 334 327 326 325 327 331 338 338 320 343 258 327 112 217 243 249 274 265 276 279 268 276 278 265 264 266 267 265 269 272 270 271 276 282 282 285 286 282 275
346 343 340 338 337 335 332 329 324 327 331 339 339 325 319 342 299 207 199 180 183 237 289 281 275 272 261 269 268 265 260 262 268 250 265 265 270 278 284 283 281 284 287 278 279
343 341 338 333 331 330 328 326 327 330 332 331 319 320 310 308 316 207 190 188 188 190 266 268 269 262 257 248 260 260 262 260 260 257 259 265 263 282 283 279 281 281 281 284 271
338 335 335 334 331 330 328 330 327 323 310 301 309 309 334 336 346 250 189 198 192 202 212 229 222 231 244 251 265 266 266 260 265 275 267 263 266 271 280 277 277 279 278 278 279
336 333 333 332 330 329 328 323 324 321 308 289 277 274 274 308 297 259 185 211 214 226 211 224 215 246 260 258 259 262 267 265 265 265 275 270 267 271 271 276 278 282 281 277 272
335 334 332 332 330 331 330 319 320 321 306 300 275 260 253 244 261 240 199 202 213 225 213 221 275 251 253 254 255 260 262 265 266 274 268 272 267 267 267 272 278 280 282 282 263
334 332 332 333 331 333 324 338 332 330 308 301 296 281 233 241 243 241 204 205 241 227 222 233 265 256 242 249 254 259 261 265 271 269 266 264 264 266 264 263 273 281 285 277 272
334 333 331 333 325 325 324 329 325 327 303 325 284 327 253 207 288 211 194 203 227 243 227 233 249 254 250 251 256 262 268 266 266 268 271 269 263 272 237 246 260 280 286 282 269
334 333 332 328 317 316 315 322 321 299 290 307 310 298 249 208 245 196 197 207 228 254 250 253 257 259 258 260 259 265 266 267 270 267 261 259 264 265 251 253 245 259 277 280 274
333 332 327 321 315 332 323 311 296 285 311 299 290 278 237 229 223 199 196 205 213 223 243 249 253 258 261 251 254 259 254 260 263 261 263 262 258 260 282 254 220 247 263 277 280
332 330 324 315 310 305 303 291 282 285 268 284 308 275 226 229 222 199 212 209 220 230 249 248 246 234 248 252 242 241 237 253 263 271 267 256 256 261 258 260 257 248 283 281 278
337 336 332 328 320 308 298 281 276 274 274 285 273 270 273 202 236 216 221 225 216 218 240 244 251 228 242 251 240 234 243 258 272 273 280 268 262 272 257 266 262 275 280 277 285
339 337 335 355 351 336 296 281 283 284 271 271 267 263 261 247 243 215 220 222 218 206 247 272 266 259 214 236 251 253 258 259 263 267 261 262 264 271 259 252 257 256 263 272 285
349 345 3 12 17 336 303 299 296 280 260 251 259 244 258 256 257 245 242 238 218 218 234 254 264 254 227 229 232 233 260 262 263 267 268 265 267 304 283 265 254 255 251 268 283
353 345 5 15 346 340 314 301 284 286 262 256 260 247 253 270 253 268 247 241 263 233 203 198 262 259 185 218 246 247 245 238 263 266 270 270 272 286 293 287 285 223 267 282 287
350 339 353 34 352 346 340 261 270 288 252 261 248 252 251 240 239 268 245 238 254 245 242 243 248 239 237 257 255 249 254 260 263 267 269 270 278 290 287 289 255 282 280 290 292
352 356 13 12 359 354 353 289 278 283 240 253 248 252 250 243 243 250 257 256 246 248 259 253 249 232 239 264 256 230 248 253 265 265 270 269 281 287 288 289 289 288 289 291 290
357 354 2 350 352 309 290 276 268 282 268 248 251 238 243 252 249 244 254 257 239 253 246 252 250 251 248 269 272 231 245 259 263 262 269 279 282 290 296 288 289 296 297 299 305
345 350 355 351 356 303 270 281 281 272 271 255 244 248 248 238 240 250 245 252 247 245 250 242 249 264 258 261 263 271 278 274 265 262 271 276 281 311 310 290 298 303 300 301 303
343 341 356 356 5 265 285 285 271 275 280 277 272 249 237 238 255 251 260 248 265 239 241 236 237 252 259 261 267 267 270 269 272 275 278 276 288 286 307 311 307 303 301 308 304